Location: Jackson
(42.2460°N, 84.4010°W)
Time: 18:40:17
(UTC-04:00)

Courier 1B Rocket - Pass Details

Date: 11 February 2026
Orbit: 920 x 1201 km, 28.2° (Epoch: 12 March)

Event Time Altitude Azimuth Distance (km) Brightness Sun altitude
Rises 21:28:34 0° 213° (SSW) 3,637 8.2 -37.9°
Enters shadow 21:29:57 - 207° (SSW) 3,270 7.8 -38.1°
Reaches altitude 10° 21:32:25 10° 191° (SSW) 2,743 - -38.5°
Maximum altitude 21:35:58 15° 159° (SSE) 2,446 - -39.2°
Drops below altitude 10° 21:39:38 10° 126° (SE) 2,856 - -39.8°
Sets 21:43:46 0° 105° (ESE) 3,878 - -40.5°
